Schneifelwetter: Wetterstation Hallschlag, 537 m . NN
Wetterdaten: Mittwoch, 27.04.2011
Datum Zeit Temp. A. Feuchte A. Luftdruck Regen Wind Richtung Richtung Sonnenschein Helligkeit T Regen Taupunkt Windchill
27.04.2011 00:00 10,8 C 68 % 1017 hPa 0,0 l/m 16,3 km/h (3 Bft) N22.5 5 0 min 0 lux 0,00 min 5,1 C 5,6 C
27.04.2011 00:15 10,8 C 68 % 1017 hPa 0,0 l/m 16,5 km/h (3 Bft) N67.5 355 0 min 0 lux 0,00 min 5,1 C 5,5 C
27.04.2011 00:30 10,6 C 67 % 1016 hPa 0,0 l/m 12,6 km/h (3 Bft) N67.5 360 0 min 0 lux 0,00 min 4,7 C 6,9 C
27.04.2011 00:45 10,4 C 68 % 1016 hPa 0,0 l/m 15,1 km/h (3 Bft) N22.5 5 0 min 0 lux 0,00 min 4,8 C 5,6 C
27.04.2011 01:00 10,3 C 69 % 1017 hPa 0,0 l/m 20,1 km/h (4 Bft) N67.5 360 0 min 0 lux 0,00 min 4,9 C 3,6 C
27.04.2011 01:15 10,2 C 70 % 1016 hPa 0,0 l/m 15,3 km/h (3 Bft) N 10 0 min 0 lux 0,00 min 5,0 C 5,3 C
27.04.2011 01:30 10,2 C 70 % 1017 hPa 0,0 l/m 18,7 km/h (3 Bft) N67.5 355 0 min 0 lux 0,00 min 5,0 C 4,0 C
27.04.2011 01:45 10,0 C 70 % 1017 hPa 0,0 l/m 24,1 km/h (4 Bft) N22.5 5 0 min 0 lux 0,00 min 4,8 C 2,1 C
27.04.2011 02:00 9,7 C 70 % 1017 hPa 0,0 l/m 16,8 km/h (3 Bft) N-NO45 15 0 min 0 lux 0,00 min 4,5 C 4,0 C
27.04.2011 02:15 9,5 C 70 % 1016 hPa 0,0 l/m 18,8 km/h (3 Bft) N22.5 10 0 min 0 lux 0,00 min 4,3 C 3,1 C
27.04.2011 02:30 9,2 C 70 % 1016 hPa 0,0 l/m 17,3 km/h (3 Bft) N22.5 10 0 min 0 lux 0,00 min 4,0 C 3,2 C
27.04.2011 02:45 8,9 C 71 % 1016 hPa 0,0 l/m 13,2 km/h (3 Bft) N67.5 355 0 min 0 lux 0,00 min 3,9 C 4,6 C
27.04.2011 03:00 8,6 C 71 % 1016 hPa 0,0 l/m 16,5 km/h (3 Bft) N45 355 0 min 0 lux 0,00 min 3,6 C 2,8 C
27.04.2011 03:15 8,4 C 71 % 1016 hPa 0,0 l/m 13,8 km/h (3 Bft) N-NO 20 0 min 0 lux 0,00 min 3,5 C 3,8 C
27.04.2011 03:30 8,3 C 72 % 1016 hPa 0,0 l/m 18,0 km/h (3 Bft) N45 5 0 min 0 lux 0,00 min 3,6 C 1,8 C
27.04.2011 03:45 8,1 C 72 % 1016 hPa 0,0 l/m 15,6 km/h (3 Bft) N67.5 355 0 min 0 lux 0,00 min 3,4 C 2,6 C
27.04.2011 04:00 7,8 C 72 % 1016 hPa 0,0 l/m 16,0 km/h (3 Bft) N-NO67.5 20 0 min 0 lux 0,00 min 3,1 C 2,0 C
27.04.2011 04:15 7,5 C 74 % 1016 hPa 0,0 l/m 14,1 km/h (3 Bft) N-NO22.5 20 0 min 0 lux 0,00 min 3,2 C 2,5 C
27.04.2011 04:30 7,3 C 74 % 1016 hPa 0,0 l/m 15,7 km/h (3 Bft) N22.5 350 0 min 0 lux 0,00 min 3,0 C 1,5 C
27.04.2011 04:46 7,2 C 74 % 1016 hPa 0,0 l/m 8,5 km/h (2 Bft) N-NW 340 0 min 0 lux 0,00 min 2,9 C 5,5 C
27.04.2011 05:01 6,6 C 75 % 1016 hPa 0,0 l/m 6,8 km/h (2 Bft) N-NW 340 0 min 0 lux 0,00 min 2,5 C 6,3 C
27.04.2011 05:16 6,4 C 77 % 1016 hPa 0,0 l/m 7,9 km/h (2 Bft) N-NW 340 0 min 0 lux 0,00 min 2,7 C 5,2 C
27.04.2011 05:31 6,4 C 78 % 1016 hPa 0,0 l/m 12,5 km/h (3 Bft) N22.5 10 0 min 0 lux 0,00 min 2,8 C 2,1 C
27.04.2011 05:46 6,2 C 78 % 1016 hPa 0,0 l/m 0,0 km/h (0 Bft) N-NO 25 0 min 0 lux 0,00 min 2,7 C 6,2 C
27.04.2011 06:01 6,4 C 79 % 1016 hPa 0,0 l/m 11,3 km/h (2 Bft) N22.5 360 0 min 0 lux 0,00 min 3,0 C 2,8 C
27.04.2011 06:16 6,3 C 78 % 1016 hPa 0,0 l/m 7,6 km/h (2 Bft) N-NO22.5 25 0 min 183 lux 0,00 min 2,8 C 5,3 C
27.04.2011 06:30 6,2 C 79 % 1016 hPa 0,0 l/m 7,0 km/h (2 Bft) N-NO 25 0 min 370 lux 0,00 min 2,8 C 5,7 C
27.04.2011 06:45 6,4 C 80 % 1016 hPa 0,0 l/m 11,0 km/h (2 Bft) N-NO 30 0 min 656 lux 0,00 min 3,2 C 3,0 C
27.04.2011 07:00 6,6 C 80 % 1016 hPa 0,0 l/m 13,3 km/h (3 Bft) N67.5 360 0 min 1,40 klux 0,00 min 3,4 C 1,9 C
27.04.2011 07:15 6,8 C 80 % 1016 hPa 0,0 l/m 10,6 km/h (2 Bft) N-NO22.5 25 0 min 3,38 klux 0,00 min 3,6 C 3,7 C
27.04.2011 07:30 6,8 C 80 % 1016 hPa 0,0 l/m 12,5 km/h (3 Bft) N22.5 10 0 min 4,85 klux 0,00 min 3,6 C 2,5 C
27.04.2011 07:45 7,0 C 81 % 1016 hPa 0,0 l/m 12,8 km/h (3 Bft) N22.5 10 0 min 7,58 klux 0,00 min 4,0 C 2,6 C
27.04.2011 08:00 7,4 C 80 % 1016 hPa 0,0 l/m 1,0 km/h (0 Bft) N 10 0 min 11,9 klux 0,00 min 4,2 C 7,4 C
27.04.2011 08:15 7,8 C 80 % 1016 hPa 0,0 l/m 15,6 km/h (3 Bft) N-NO22.5 20 0 min 11,2 klux 0,00 min 4,6 C 2,2 C
27.04.2011 08:30 7,6 C 81 % 1016 hPa 0,0 l/m 19,6 km/h (3 Bft) N22.5 10 0 min 9,4 klux 0,00 min 4,6 C 0,3 C
27.04.2011 08:46 7,5 C 81 % 1016 hPa 0,0 l/m 17,0 km/h (3 Bft) N45 5 0 min 7,41 klux 0,00 min 4,5 C 1,2 C
27.04.2011 09:00 7,6 C 81 % 1016 hPa 0,0 l/m 15,6 km/h (3 Bft) N22.5 350 0 min 7,74 klux 0,00 min 4,6 C 2,0 C
27.04.2011 09:15 7,9 C 82 % 1016 hPa 0,0 l/m 11,9 km/h (2 Bft) N-NO22.5 15 0 min 13,1 klux 0,00 min 5,0 C 4,2 C
27.04.2011 09:30 8,0 C 82 % 1016 hPa 0,0 l/m 16,0 km/h (3 Bft) N22.5 5 0 min 9,1 klux 0,00 min 5,1 C 2,3 C
27.04.2011 09:45 7,9 C 83 % 1016 hPa 0,0 l/m 8,8 km/h (2 Bft) N 360 0 min 13,2 klux 0,00 min 5,2 C 6,1 C
27.04.2011 10:00 8,4 C 85 % 1016 hPa 0,6 l/m 6,2 km/h (2 Bft) NW 320 0 min 25,3 klux 15,00 min 6,0 C 8,4 C
27.04.2011 10:15 9,3 C 84 % 1016 hPa 0,0 l/m 8,5 km/h (2 Bft) NW 320 0 min 27,4 klux 0,00 min 6,7 C 7,8 C
27.04.2011 10:31 9,4 C 84 % 1016 hPa 0,0 l/m 18,0 km/h (3 Bft) N-NO22.5 25 0 min 19,7 klux 0,00 min 6,8 C 3,2 C
27.04.2011 10:45 8,8 C 85 % 1016 hPa 0,0 l/m 25,7 km/h (4 Bft) N-NO22.5 25 0 min 24,2 klux 0,00 min 6,4 C 0,0 C
27.04.2011 11:00 9,1 C 85 % 1016 hPa 0,0 l/m 24,1 km/h (4 Bft) N-NO22.5 15 0 min 31,0 klux 0,00 min 6,7 C 0,9 C
27.04.2011 11:15 8,8 C 85 % 1017 hPa 0,0 l/m 22,3 km/h (4 Bft) N-NO22.5 15 0 min 19,1 klux 0,00 min 6,4 C 1,0 C
27.04.2011 11:30 8,4 C 87 % 1017 hPa 0,0 l/m 19,5 km/h (3 Bft) N-NO22.5 20 0 min 15,9 klux 0,00 min 6,4 C 1,4 C
27.04.2011 11:45 7,8 C 88 % 1017 hPa 0,0 l/m 22,8 km/h (4 Bft) N22.5 5 0 min 7,65 klux 0,00 min 5,9 C -0,5 C
27.04.2011 12:01 7,7 C 88 % 1017 hPa 0,0 l/m 20,1 km/h (4 Bft) N67.5 5 0 min 10,1 klux 0,00 min 5,8 C 0,3 C
27.04.2011 12:15 7,6 C 89 % 1017 hPa 0,3 l/m 19,5 km/h (3 Bft) N-NO45 15 0 min 11,8 klux 14,00 min 5,9 C 0,4 C
27.04.2011 12:30 7,6 C 89 % 1017 hPa 0,6 l/m 19,8 km/h (3 Bft) N-NO67.5 15 0 min 21,9 klux 15,00 min 5,9 C 0,3 C
27.04.2011 12:45 8,0 C 89 % 1017 hPa 0,3 l/m 18,1 km/h (3 Bft) N45 355 0 min 24,1 klux 15,00 min 6,3 C 1,4 C
27.04.2011 13:00 8,3 C 89 % 1016 hPa 0,0 l/m 16,5 km/h (3 Bft) N45 355 0 min 23,4 klux 0,00 min 6,6 C 2,4 C
27.04.2011 13:15 8,5 C 89 % 1016 hPa 0,0 l/m 18,4 km/h (3 Bft) N45 360 0 min 22,1 klux 0,00 min 6,8 C 1,9 C
27.04.2011 13:30 8,6 C 89 % 1016 hPa 0,6 l/m 22,6 km/h (4 Bft) N-NO22.5 20 0 min 23,2 klux 15,00 min 6,9 C 0,6 C
27.04.2011 13:46 8,4 C 88 % 1016 hPa 0,3 l/m 21,6 km/h (4 Bft) N22.5 5 0 min 20,9 klux 16,00 min 6,5 C 0,7 C
27.04.2011 14:00 8,2 C 89 % 1016 hPa 0,3 l/m 20,9 km/h (4 Bft) N-NO45 15 0 min 18,1 klux 14,00 min 6,5 C 0,7 C
27.04.2011 14:15 8,4 C 89 % 1016 hPa 0,3 l/m 14,5 km/h (3 Bft) N22.5 355 0 min 24,0 klux 15,00 min 6,7 C 3,4 C
27.04.2011 14:30 9,0 C 89 % 1016 hPa 0,0 l/m 15,6 km/h (3 Bft) N-NW45 340 0 min 29,2 klux 0,00 min 7,3 C 3,7 C
27.04.2011 14:45 9,2 C 87 % 1016 hPa 0,0 l/m 18,1 km/h (3 Bft) N-NO22.5 15 0 min 24,0 klux 0,00 min 7,2 C 2,9 C
27.04.2011 15:00 8,9 C 87 % 1016 hPa 0,0 l/m 19,1 km/h (3 Bft) N-NO45 25 0 min 18,0 klux 0,00 min 6,9 C 2,2 C
27.04.2011 15:15 8,5 C 87 % 1016 hPa 0,0 l/m 20,1 km/h (4 Bft) N22.5 10 0 min 13,8 klux 0,00 min 6,5 C 1,3 C
27.04.2011 15:30 8,6 C 87 % 1016 hPa 0,0 l/m 19,8 km/h (3 Bft) N-NO22.5 25 0 min 25,8 klux 0,00 min 6,6 C 1,5 C
27.04.2011 15:45 9,4 C 87 % 1015 hPa 0,0 l/m 15,3 km/h (3 Bft) N45 5 0 min 36,9 klux 0,00 min 7,3 C 4,3 C
27.04.2011 16:00 9,8 C 86 % 1015 hPa 0,0 l/m 19,6 km/h (3 Bft) N-NO22.5 15 0 min 33,7 klux 0,00 min 7,6 C 3,2 C
27.04.2011 16:15 10,0 C 84 % 1015 hPa 0,0 l/m 18,4 km/h (3 Bft) N-NO67.5 15 0 min 33,4 klux 0,00 min 7,4 C 3,8 C
27.04.2011 16:30 9,7 C 83 % 1015 hPa 0,0 l/m 21,5 km/h (4 Bft) N-NO45 25 0 min 39,2 klux 0,00 min 7,0 C 2,4 C
27.04.2011 16:45 9,7 C 83 % 1015 hPa 0,0 l/m 18,9 km/h (3 Bft) N22.5 355 0 min 52,0 klux 0,00 min 7,0 C 3,3 C
27.04.2011 17:01 9,1 C 83 % 1015 hPa 0,0 l/m 17,7 km/h (3 Bft) N67.5 355 0 min 14,0 klux 0,00 min 6,4 C 2,9 C
27.04.2011 17:15 8,7 C 85 % 1015 hPa 0,0 l/m 14,9 km/h (3 Bft) N22.5 10 0 min 10,8 klux 0,00 min 6,3 C 3,6 C
27.04.2011 17:30 8,9 C 85 % 1015 hPa 0,0 l/m 14,3 km/h (3 Bft) N45 10 0 min 15,3 klux 0,00 min 6,5 C 4,1 C
27.04.2011 17:45 8,7 C 86 % 1015 hPa 0,0 l/m 20,3 km/h (4 Bft) N45 350 0 min 12,1 klux 0,00 min 6,5 C 1,5 C
27.04.2011 18:00 8,4 C 87 % 1015 hPa 0,0 l/m 22,2 km/h (4 Bft) N22.5 5 0 min 7,15 klux 0,00 min 6,4 C 0,5 C
27.04.2011 18:15 8,0 C 88 % 1015 hPa 0,0 l/m 24,5 km/h (4 Bft) N22.5 360 0 min 6,57 klux 0,00 min 6,1 C -0,7 C
27.04.2011 18:30 7,7 C 89 % 1015 hPa 0,0 l/m 25,9 km/h (4 Bft) N-NO45 15 0 min 5,09 klux 0,00 min 6,0 C -1,5 C
27.04.2011 18:45 7,8 C 90 % 1015 hPa 0,0 l/m 20,1 km/h (4 Bft) N45 355 0 min 7,86 klux 0,00 min 6,3 C 0,4 C
27.04.2011 19:00 8,0 C 90 % 1015 hPa 0,0 l/m 17,8 km/h (3 Bft) N45 350 0 min 8,21 klux 0,00 min 6,5 C 1,5 C
27.04.2011 19:15 8,0 C 90 % 1015 hPa 0,0 l/m 19,0 km/h (3 Bft) N-NO67.5 20 0 min 6,01 klux 0,00 min 6,5 C 1,1 C
27.04.2011 19:30 7,8 C 91 % 1015 hPa 0,0 l/m 18,0 km/h (3 Bft) N45 360 0 min 4,00 klux 0,00 min 6,4 C 1,2 C
27.04.2011 19:45 7,7 C 92 % 1015 hPa 0,0 l/m 17,1 km/h (3 Bft) N-NO45 20 0 min 1,84 klux 0,00 min 6,5 C 1,4 C
27.04.2011 20:00 7,6 C 92 % 1015 hPa 0,0 l/m 15,4 km/h (3 Bft) NO45 35 0 min 1,08 klux 0,00 min 6,4 C 2,0 C
27.04.2011 20:16 7,6 C 93 % 1015 hPa 0,0 l/m 17,2 km/h (3 Bft) N-NO22.5 30 0 min 932 lux 0,00 min 6,5 C 1,3 C
27.04.2011 20:30 7,6 C 95 % 1015 hPa 0,0 l/m 23,5 km/h (4 Bft) N-NO22.5 30 0 min 401 lux 0,00 min 6,9 C -1,0 C
27.04.2011 20:45 7,6 C 94 % 1015 hPa 0,0 l/m 14,3 km/h (3 Bft) NO45 40 0 min 320 lux 0,00 min 6,7 C 2,6 C
27.04.2011 21:00 7,5 C 95 % 1015 hPa 0,0 l/m 16,1 km/h (3 Bft) N-NO22.5 25 0 min 71 lux 0,00 min 6,8 C 1,6 C
27.04.2011 21:15 7,4 C 95 % 1015 hPa 0,0 l/m 16,0 km/h (3 Bft) NO45 35 0 min 24 lux 0,00 min 6,7 C 1,5 C
27.04.2011 21:30 7,4 C 95 % 1015 hPa 0,0 l/m 19,6 km/h (3 Bft) N-NO22.5 25 0 min 4 lux 0,00 min 6,7 C 0,1 C
27.04.2011 21:45 7,4 C 95 % 1015 hPa 0,0 l/m 20,2 km/h (4 Bft) N-NO22.5 25 0 min 0 lux 0,00 min 6,7 C -0,1 C
27.04.2011 22:01 7,6 C 95 % 1015 hPa 0,0 l/m 22,1 km/h (4 Bft) NO67.5 40 0 min 0 lux 0,00 min 6,9 C -0,5 C
27.04.2011 22:15 7,6 C 94 % 1015 hPa 0,0 l/m 12,5 km/h (3 Bft) N-NO 30 0 min 0 lux 0,00 min 6,7 C 3,5 C
27.04.2011 22:30 7,6 C 94 % 1015 hPa 0,0 l/m 13,5 km/h (3 Bft) N-NO22.5 15 0 min 0 lux 0,00 min 6,7 C 3,0 C
27.04.2011 22:45 7,6 C 93 % 1015 hPa 0,0 l/m 16,9 km/h (3 Bft) N-NO22.5 30 0 min 0 lux 0,00 min 6,5 C 1,4 C
27.04.2011 23:00 7,5 C 93 % 1015 hPa 0,0 l/m 11,8 km/h (2 Bft) N22.5 360 0 min 0 lux 0,00 min 6,4 C 3,7 C
27.04.2011 23:15 7,3 C 92 % 1015 hPa 0,0 l/m 7,0 km/h (2 Bft) N-NO 15 0 min 0 lux 0,00 min 6,1 C 6,8 C
27.04.2011 23:31 7,2 C 93 % 1015 hPa 0,0 l/m 10,2 km/h (2 Bft) N-NO 15 0 min 0 lux 0,00 min 6,1 C 4,4 C
27.04.2011 23:45 7,2 C 93 % 1014 hPa 0,0 l/m 9,9 km/h (2 Bft) N-NO 15 0 min 0 lux 0,00 min 6,1 C 4,6 C
27.04.2011 23:54 7,1 C 93 % 1014 hPa 0,0 l/m 5,0 km/h (1 Bft) N-NW22.5 340 0 min 0 lux 0,00 min 6,0 C 7,1 C
_ Min-Zeit 05:46 00:30 23:45 - 05:46 - - - - - 05:01 18:30
Minimum _ 6,2 C 67 % 1014 hPa - 0,0 km/h (0 Bft) - - - - - 2,5 C -1,5 C
_ Max-Zeit 00:00 20:30 00:00 10:00 18:30 - - 00:00 16:45 13:46 16:00 10:00
Maximum _ 10,8 C 95 % 1017 hPa 0,6 l/m 25,9 km/h
N-NO (4 Bft)
- - 0 min 52,0 klux 16,00 min 7,6 C 8,4 C
Durchschnitt _ 8,2 C 83 % 1016 hPa #3,3 l/m 16,0 km/h (3 Bft) N - #0 min. 9,1 klux #1:59 h 5,5 C 2,8 C